SVA209 LGAV-EGLL

Flight info

Callsign SVA209
Flight time N/A
Altitude 36000
Route KOR1M KOR UL53 IPTES DCT DIMIS DCT PETAK DCT GLOMY DCT NEMEK DCT ADOMO DCT GIMIX DCT TATZI DCT BABEG DCT LIRSU DCT ARCKY DCT BUB L608 LOGAN LOGAN2H
Aircraft A320/M-SDE3FGHIRWY/LB1

Departure

Time 2026-05-05 01:54
Airport Athens Eleftherios Venizelos International Airport (LGAV)

Arrival

Time N/A
Airport London Heathrow Airport (EGLL)
Time Latitude Longitude Altitude Speed Heading
2026-05-05 01:28 37.93412 23.94653 301 ft 0 kts 306°
2026-05-05 01:37 37.93403 23.94670 302 ft 2 kts 306°
2026-05-05 01:37 37.93392 23.94687 301 ft 2 kts 306°
2026-05-05 01:38 37.93382 23.94704 303 ft 2 kts 306°
2026-05-05 01:38 37.93373 23.94722 302 ft 2 kts 340°
2026-05-05 01:38 37.93362 23.94724 301 ft 2 kts 16°
2026-05-05 01:38 37.93348 23.94719 303 ft 0 kts 35°
2026-05-05 01:44 37.93349 23.94720 303 ft 2 kts 35°
2026-05-05 01:44 37.93381 23.94750 302 ft 6 kts 38°
2026-05-05 01:44 37.93411 23.94780 301 ft 5 kts 38°
2026-05-05 01:44 37.93435 23.94804 302 ft 4 kts 38°
2026-05-05 01:45 37.93472 23.94838 301 ft 12 kts 36°
2026-05-05 01:45 37.93537 23.94899 301 ft 11 kts 36°
2026-05-05 01:45 37.93612 23.94972 301 ft 18 kts 37°
2026-05-05 01:45 37.93717 23.95072 300 ft 20 kts 38°
2026-05-05 01:46 37.93828 23.95180 303 ft 16 kts 39°
2026-05-05 01:46 37.93884 23.95310 300 ft 18 kts 69°
2026-05-05 01:46 37.93962 23.95433 302 ft 19 kts 36°
2026-05-05 01:46 37.94051 23.95519 300 ft 16 kts 37°
2026-05-05 01:47 37.94146 23.95532 302 ft 15 kts 315°
2026-05-05 01:47 37.94208 23.95429 300 ft 15 kts 306°
2026-05-05 01:47 37.94269 23.95326 301 ft 15 kts 307°
2026-05-05 01:47 37.94330 23.95223 302 ft 15 kts 307°
2026-05-05 01:48 37.94392 23.95120 301 ft 15 kts 307°
2026-05-05 01:48 37.94454 23.95016 301 ft 15 kts 307°
2026-05-05 01:48 37.94517 23.94908 302 ft 16 kts 307°
2026-05-05 01:48 37.94583 23.94796 301 ft 16 kts 306°
2026-05-05 01:49 37.94655 23.94677 301 ft 17 kts 308°
2026-05-05 01:49 37.94726 23.94620 302 ft 11 kts 20°
2026-05-05 01:49 37.94782 23.94669 304 ft 9 kts 36°
2026-05-05 01:49 37.94828 23.94713 305 ft 8 kts 37°
2026-05-05 01:50 37.94870 23.94743 302 ft 6 kts
2026-05-05 01:50 37.94901 23.94727 303 ft 4 kts 323°
2026-05-05 01:50 37.94913 23.94707 302 ft 2 kts 298°
2026-05-05 01:50 37.94914 23.94702 302 ft 0 kts 290°
2026-05-05 01:52 37.94915 23.94698 303 ft 2 kts 287°
2026-05-05 01:52 37.94915 23.94665 303 ft 7 kts 258°
2026-05-05 01:52 37.94896 23.94606 305 ft 6 kts 246°
2026-05-05 01:52 37.94878 23.94556 306 ft 11 kts 246°
2026-05-05 01:53 37.94841 23.94469 308 ft 12 kts 235°
2026-05-05 01:53 37.94709 23.94321 304 ft 53 kts 217°
2026-05-05 01:53 37.94225 23.93863 303 ft 118 kts 217°
2026-05-05 01:53 37.93409 23.93090 296 ft 168 kts 217°
2026-05-05 01:54 37.92465 23.92192 900 ft 166 kts 217°
2026-05-05 01:54 37.91543 23.91317 1505 ft 167 kts 220°
2026-05-05 01:54 37.90662 23.90262 1815 ft 184 kts 230°
2026-05-05 01:54 37.89737 23.89013 1967 ft 205 kts 230°
2026-05-05 01:55 37.88700 23.87620 2163 ft 231 kts 229°
2026-05-05 01:55 37.87562 23.86096 2786 ft 243 kts 229°
2026-05-05 01:55 37.86379 23.84518 3549 ft 251 kts 229°
2026-05-05 01:55 37.85158 23.82893 4312 ft 258 kts 229°
2026-05-05 01:56 37.83894 23.81214 4848 ft 267 kts 229°
2026-05-05 01:56 37.82609 23.79508 4980 ft 268 kts 229°
2026-05-05 01:56 37.81336 23.77790 5004 ft 267 kts 234°
2026-05-05 01:56 37.80447 23.75767 5004 ft 265 kts 256°
2026-05-05 01:57 37.80104 23.73443 5009 ft 272 kts 265°
2026-05-05 01:57 37.79848 23.71071 5004 ft 272 kts 265°
2026-05-05 01:57 37.79586 23.68704 5005 ft 272 kts 265°
2026-05-05 01:57 37.79319 23.66331 5004 ft 272 kts 265°
2026-05-05 01:58 37.79050 23.63962 5004 ft 273 kts 265°
2026-05-05 01:58 37.78779 23.61581 5008 ft 274 kts 265°
2026-05-05 01:58 37.78506 23.59201 5009 ft 274 kts 264°
2026-05-05 01:58 37.78234 23.56819 5005 ft 274 kts 265°
2026-05-05 01:59 37.77963 23.54434 5003 ft 274 kts 265°
2026-05-05 01:59 37.77692 23.52055 5003 ft 274 kts 265°
2026-05-05 01:59 37.77419 23.49671 5003 ft 274 kts 264°
2026-05-05 01:59 37.77145 23.47290 5007 ft 274 kts 265°
2026-05-05 02:00 37.76874 23.44907 5009 ft 274 kts 266°
2026-05-05 02:00 37.76896 23.42527 5003 ft 269 kts 282°
2026-05-05 02:00 37.77422 23.40262 5208 ft 273 kts 297°
2026-05-05 02:00 37.78188 23.38079 6206 ft 271 kts 297°
2026-05-05 02:01 37.78935 23.35875 7106 ft 274 kts 296°
2026-05-05 02:01 37.79683 23.33641 7974 ft 277 kts 296°
2026-05-05 02:01 37.80436 23.31382 8832 ft 280 kts 296°
2026-05-05 02:01 37.81196 23.29103 9703 ft 283 kts 296°
2026-05-05 02:02 37.81958 23.26829 10456 ft 289 kts 296°
2026-05-05 02:02 37.82777 23.24397 10720 ft 312 kts 296°
2026-05-05 02:02 37.83661 23.21776 10944 ft 336 kts 296°
2026-05-05 02:02 37.84618 23.18931 11084 ft 359 kts 295°
2026-05-05 02:03 37.84837 23.18277 11118 ft 363 kts 295°
2026-05-05 02:04 37.85718 23.15637 11558 ft 371 kts 295°
2026-05-05 02:04 37.86730 23.12591 12112 ft 378 kts 295°
2026-05-05 02:04 37.87753 23.09507 12751 ft 383 kts 294°
2026-05-05 02:05 37.88792 23.06380 13371 ft 387 kts 294°
2026-05-05 02:05 37.89843 23.03221 13965 ft 392 kts 294°
2026-05-05 02:05 37.90904 23.00032 14528 ft 395 kts 294°
2026-05-05 02:05 37.91972 22.96815 15055 ft 398 kts 294°
2026-05-05 02:06 37.93138 22.93612 15552 ft 402 kts 300°
2026-05-05 02:06 37.94669 22.90636 16071 ft 405 kts 306°
2026-05-05 02:06 37.96291 22.87712 16601 ft 407 kts 306°
2026-05-05 02:06 37.97924 22.84756 17128 ft 410 kts 306°
2026-05-05 02:07 37.99561 22.81777 17630 ft 413 kts 306°
2026-05-05 02:07 38.01209 22.78771 18134 ft 417 kts 306°
2026-05-05 02:07 38.02869 22.75739 18554 ft 421 kts 306°
2026-05-05 02:07 38.04546 22.72673 18982 ft 424 kts 306°
2026-05-05 02:08 38.06236 22.69591 19427 ft 426 kts 306°
2026-05-05 02:08 38.07932 22.66500 19882 ft 428 kts 306°
2026-05-05 02:08 38.09635 22.63393 20331 ft 430 kts 306°
2026-05-05 02:08 38.11344 22.60277 20766 ft 431 kts 306°
2026-05-05 02:09 38.13061 22.57142 21196 ft 433 kts 306°
2026-05-05 02:09 38.14781 22.53996 21612 ft 434 kts 306°
2026-05-05 02:09 38.16507 22.50837 22014 ft 436 kts 306°
2026-05-05 02:09 38.18241 22.47659 22420 ft 438 kts 306°
2026-05-05 02:10 38.19978 22.44474 22837 ft 438 kts 307°
2026-05-05 02:10 38.21699 22.41309 23459 ft 433 kts 307°
2026-05-05 02:10 38.23409 22.38163 23931 ft 432 kts 307°
2026-05-05 02:10 38.25115 22.35021 24278 ft 432 kts 307°
2026-05-05 02:11 38.26824 22.31871 24604 ft 433 kts 307°
2026-05-05 02:11 38.28535 22.28710 24914 ft 434 kts 307°
2026-05-05 02:11 38.30248 22.25540 25215 ft 435 kts 307°
2026-05-05 02:11 38.31971 22.22355 25406 ft 439 kts 307°
2026-05-05 02:12 38.33706 22.19143 25682 ft 441 kts 307°
2026-05-05 02:12 38.37156 22.12737 26486 ft 436 kts 307°
2026-05-05 02:12 38.38859 22.09571 27015 ft 431 kts 307°
2026-05-05 02:13 38.40545 22.06435 27448 ft 427 kts 307°
2026-05-05 02:13 38.42198 22.03357 27873 ft 425 kts 307°
2026-05-05 02:13 38.43886 22.00213 28322 ft 423 kts 307°
2026-05-05 02:13 38.45524 21.97160 28767 ft 421 kts 307°
2026-05-05 02:14 38.47175 21.94087 29222 ft 419 kts 307°
2026-05-05 02:14 38.48818 21.91023 29677 ft 417 kts 307°
2026-05-05 02:14 38.50455 21.87967 30077 ft 416 kts 307°
2026-05-05 02:14 38.52085 21.84926 30472 ft 414 kts 307°
2026-05-05 02:15 38.53707 21.81896 30857 ft 413 kts 307°
2026-05-05 02:15 38.55321 21.78874 31198 ft 411 kts 307°
2026-05-05 02:15 38.56926 21.75863 31617 ft 409 kts 307°
2026-05-05 02:15 38.58520 21.72867 32019 ft 407 kts 307°
2026-05-05 02:16 38.60108 21.69881 32410 ft 405 kts 307°
2026-05-05 02:16 38.61688 21.66906 32750 ft 404 kts 307°
2026-05-05 02:16 38.63265 21.63933 33117 ft 403 kts 307°
2026-05-05 02:16 38.64833 21.60972 33478 ft 402 kts 307°
2026-05-05 02:17 38.66397 21.58016 33852 ft 400 kts 307°
2026-05-05 02:17 38.67953 21.55072 34219 ft 399 kts 307°
2026-05-05 02:17 38.69533 21.52165 34538 ft 397 kts 310°
2026-05-05 02:17 38.71398 21.49580 34823 ft 394 kts 319°
2026-05-05 02:18 38.73561 21.47443 35080 ft 393 kts 327°
2026-05-05 02:18 38.75963 21.45764 35335 ft 394 kts 332°
2026-05-05 02:18 38.78416 21.44199 35576 ft 394 kts 332°
2026-05-05 02:18 38.80865 21.42623 35813 ft 394 kts 332°
2026-05-05 02:19 38.83311 21.41045 36047 ft 394 kts 332°
2026-05-05 02:19 38.85764 21.39463 36155 ft 396 kts 332°
2026-05-05 02:19 38.88236 21.37868 36174 ft 399 kts 332°
2026-05-05 02:20 38.93224 21.34637 36171 ft 403 kts 332°
2026-05-05 02:20 38.98204 21.31404 36173 ft 404 kts 332°
2026-05-05 02:21 39.03226 21.28146 36179 ft 404 kts 332°
2026-05-05 02:21 39.08249 21.24881 36173 ft 404 kts 332°
2026-05-05 02:22 39.13270 21.21616 36176 ft 405 kts 332°
2026-05-05 02:22 39.18296 21.18340 36184 ft 405 kts 332°
2026-05-05 02:23 39.23327 21.15060 36180 ft 405 kts 332°
2026-05-05 02:23 39.28354 21.11774 36168 ft 405 kts 332°
2026-05-05 02:24 39.33371 21.08481 36185 ft 404 kts 332°
2026-05-05 02:24 39.38386 21.05190 36189 ft 404 kts 332°
2026-05-05 02:25 39.43401 21.01901 36197 ft 405 kts 332°
2026-05-05 02:25 39.48428 20.98598 36193 ft 405 kts 332°
2026-05-05 02:26 39.53452 20.95283 36191 ft 405 kts 332°
2026-05-05 02:26 39.58480 20.91960 36192 ft 406 kts 332°
2026-05-05 02:27 39.63510 20.88632 36198 ft 406 kts 332°
2026-05-05 02:27 39.68541 20.85301 36199 ft 407 kts 332°
2026-05-05 02:28 39.73551 20.81985 36193 ft 407 kts 332°
2026-05-05 02:28 39.78596 20.78632 36183 ft 407 kts 331°
2026-05-05 02:29 39.83632 20.75276 36195 ft 407 kts 331°
2026-05-05 02:29 39.88662 20.71916 36208 ft 406 kts 332°
2026-05-05 02:30 39.93696 20.68552 36198 ft 407 kts 332°
2026-05-05 02:30 39.98740 20.65183 36192 ft 407 kts 332°
2026-05-05 02:31 40.03783 20.61806 36194 ft 408 kts 332°
2026-05-05 02:31 40.08823 20.58393 36194 ft 408 kts 330°
2026-05-05 02:32 40.13783 20.54792 36195 ft 408 kts 329°
2026-05-05 02:32 40.18711 20.51107 36189 ft 408 kts 329°
2026-05-05 02:33 40.23656 20.47442 36190 ft 409 kts 329°
2026-05-05 02:33 40.28621 20.43812 36179 ft 408 kts 329°
2026-05-05 02:34 40.33581 20.40180 36189 ft 408 kts 329°
2026-05-05 02:34 40.38531 20.36530 36192 ft 408 kts 329°
2026-05-05 02:35 40.43484 20.32867 36179 ft 409 kts 329°
2026-05-05 02:35 40.48439 20.29191 36177 ft 409 kts 329°
2026-05-05 02:36 40.53393 20.25515 36177 ft 409 kts 329°
2026-05-05 02:36 40.58357 20.21838 36174 ft 410 kts 329°
2026-05-05 02:37 40.63321 20.18150 36173 ft 410 kts 329°
2026-05-05 02:37 40.68293 20.14445 36162 ft 411 kts 329°
2026-05-05 02:38 40.73268 20.10730 36426 ft 410 kts 329°
2026-05-05 02:38 40.75747 20.08881 36704 ft 409 kts 329°
2026-05-05 02:38 40.78222 20.07031 36936 ft 408 kts 329°
2026-05-05 02:38 40.80691 20.05179 37160 ft 408 kts 329°
2026-05-05 02:39 40.83155 20.03328 37370 ft 408 kts 329°
2026-05-05 02:39 40.85618 20.01475 37551 ft 408 kts 329°
2026-05-05 02:39 40.88087 19.99618 37731 ft 408 kts 329°
2026-05-05 02:39 40.90557 19.97762 37932 ft 408 kts 329°
2026-05-05 02:40 40.93029 19.95906 38117 ft 409 kts 329°
2026-05-05 02:40 40.97970 19.92187 38141 ft 408 kts 329°
2026-05-05 02:41 41.02872 19.88488 38143 ft 408 kts 329°
2026-05-05 02:41 41.07804 19.84758 38143 ft 408 kts 329°
2026-05-05 02:42 41.12735 19.81031 38142 ft 408 kts 329°
2026-05-05 02:42 41.17664 19.77300 38128 ft 408 kts 328°
2026-05-05 02:43 41.22590 19.73559 38139 ft 408 kts 328°
2026-05-05 02:43 41.27519 19.69812 38146 ft 408 kts 328°
2026-05-05 02:44 41.32445 19.66059 38153 ft 408 kts 328°
2026-05-05 02:44 41.37377 19.62295 38149 ft 409 kts 328°
2026-05-05 02:45 41.42309 19.58518 38151 ft 409 kts 328°
2026-05-05 02:45 41.47248 19.54735 38152 ft 409 kts 328°
2026-05-05 02:46 41.52134 19.51002 38146 ft 409 kts 328°
2026-05-05 02:46 41.57070 19.47206 38154 ft 410 kts 328°
2026-05-05 02:47 41.62003 19.43392 38139 ft 410 kts 328°
2026-05-05 02:47 41.66941 19.39571 38146 ft 410 kts 328°
2026-05-05 02:48 41.71882 19.35759 38148 ft 410 kts 328°
2026-05-05 02:48 41.76821 19.31938 38151 ft 410 kts 328°
2026-05-05 02:49 41.80854 19.28606 38159 ft 410 kts 325°
2026-05-05 02:49 41.85575 19.24324 38152 ft 410 kts 324°
2026-05-05 02:50 41.91043 19.19295 38148 ft 410 kts 324°
2026-05-05 02:50 41.95784 19.15017 38149 ft 410 kts 325°
2026-05-05 02:51 41.99733 19.11472 38139 ft 410 kts 325°
2026-05-05 02:51 42.04481 19.07204 38150 ft 411 kts 324°
2026-05-05 02:52 42.09226 19.02926 38154 ft 411 kts 324°
2026-05-05 02:52 42.13974 18.98627 38153 ft 411 kts 324°
2026-05-05 02:53 42.18723 18.94320 38150 ft 411 kts 324°
2026-05-05 02:53 42.23469 18.90010 38153 ft 411 kts 324°
2026-05-05 02:54 42.28224 18.85697 38158 ft 412 kts 324°
2026-05-05 02:54 42.32974 18.81369 38154 ft 412 kts 324°
2026-05-05 02:55 42.37720 18.77028 38144 ft 412 kts 324°
2026-05-05 02:55 42.42472 18.72679 38149 ft 412 kts 324°
2026-05-05 02:56 42.47225 18.68335 38155 ft 412 kts 324°
2026-05-05 02:56 42.51977 18.63973 38158 ft 412 kts 324°
2026-05-05 02:57 42.56728 18.59600 38161 ft 413 kts 324°
2026-05-05 02:57 42.61485 18.55218 38161 ft 413 kts 324°
2026-05-05 02:58 42.66242 18.50823 38161 ft 414 kts 324°
2026-05-05 02:58 42.70998 18.46412 38162 ft 414 kts 324°
2026-05-05 02:59 42.75758 18.42001 38154 ft 414 kts 323°
2026-05-05 02:59 42.80498 18.37606 38157 ft 415 kts 323°
2026-05-05 03:00 42.85273 18.33170 38167 ft 416 kts 323°
2026-05-05 03:00 42.90047 18.28717 38184 ft 416 kts 323°
2026-05-05 03:01 42.94821 18.24254 38198 ft 416 kts 323°
2026-05-05 03:01 42.99601 18.19786 38195 ft 417 kts 323°
2026-05-05 03:02 43.04387 18.15306 38176 ft 417 kts 323°
2026-05-05 03:02 43.09172 18.10813 38172 ft 417 kts 323°
2026-05-05 03:03 43.13960 18.06308 38167 ft 418 kts 323°
2026-05-05 03:03 43.18742 18.01791 38166 ft 418 kts 323°
2026-05-05 03:04 43.23532 17.97262 38155 ft 419 kts 323°
2026-05-05 03:04 43.28334 17.92718 38150 ft 419 kts 323°
2026-05-05 03:05 43.33139 17.88169 38151 ft 420 kts 323°
2026-05-05 03:05 43.37946 17.83604 38152 ft 420 kts 323°
2026-05-05 03:06 43.42751 17.79024 38162 ft 420 kts 323°
2026-05-05 03:06 43.47556 17.74440 38145 ft 420 kts 323°
2026-05-05 03:07 43.52364 17.69850 38147 ft 420 kts 323°
2026-05-05 03:07 43.57143 17.65198 38151 ft 420 kts 321°
2026-05-05 03:08 43.61713 17.60181 38152 ft 419 kts 318°
2026-05-05 03:08 43.66184 17.54990 38159 ft 420 kts 318°
2026-05-05 03:09 43.70683 17.49822 38158 ft 421 kts 319°
2026-05-05 03:09 43.75226 17.44693 38149 ft 422 kts 319°
2026-05-05 03:10 43.79774 17.39574 38153 ft 422 kts 319°
2026-05-05 03:10 43.84324 17.34422 38153 ft 422 kts 318°
2026-05-05 03:11 43.88866 17.29251 38164 ft 423 kts 319°
2026-05-05 03:11 43.93419 17.24068 38157 ft 424 kts 319°
2026-05-05 03:12 43.97975 17.18868 38157 ft 424 kts 318°
2026-05-05 03:12 44.02535 17.13653 38151 ft 425 kts 318°
2026-05-05 03:13 44.07103 17.08433 38150 ft 425 kts 318°
2026-05-05 03:13 44.11671 17.03194 38166 ft 426 kts 318°
2026-05-05 03:14 44.16245 16.97930 38160 ft 427 kts 318°
2026-05-05 03:14 44.20820 16.92647 38138 ft 428 kts 318°
2026-05-05 03:15 44.25403 16.87352 38141 ft 428 kts 318°
2026-05-05 03:15 44.29988 16.82049 38136 ft 428 kts 318°
2026-05-05 03:16 44.34573 16.76721 38153 ft 429 kts 318°
2026-05-05 03:16 44.39163 16.71375 38133 ft 430 kts 318°
2026-05-05 03:17 44.43763 16.66020 38128 ft 430 kts 317°
2026-05-05 03:17 44.48366 16.60651 38121 ft 431 kts 317°
2026-05-05 03:18 44.52968 16.55270 38120 ft 431 kts 317°
2026-05-05 03:18 44.57566 16.49872 38125 ft 431 kts 317°
2026-05-05 03:19 44.64480 16.41749 38114 ft 433 kts 317°
2026-05-05 03:19 44.69094 16.36309 38102 ft 433 kts 317°
2026-05-05 03:20 44.73712 16.30852 38100 ft 434 kts 317°
2026-05-05 03:20 44.78339 16.25381 38093 ft 434 kts 317°
2026-05-05 03:21 44.82955 16.19889 38098 ft 435 kts 317°
2026-05-05 03:21 44.87581 16.14389 38082 ft 435 kts 317°
2026-05-05 03:22 44.92217 16.08880 38082 ft 436 kts 317°
2026-05-05 03:22 44.96844 16.03349 38074 ft 436 kts 317°
2026-05-05 03:23 45.01465 15.97801 38075 ft 436 kts 317°
2026-05-05 03:23 45.06100 15.92253 38090 ft 437 kts 317°
2026-05-05 03:24 45.10708 15.86724 38077 ft 437 kts 317°
2026-05-05 03:24 45.15345 15.81133 38067 ft 438 kts 317°
2026-05-05 03:25 45.19980 15.75526 38065 ft 438 kts 317°
2026-05-05 03:25 45.24627 15.69913 38063 ft 439 kts 317°
2026-05-05 03:26 45.29272 15.64288 38076 ft 439 kts 317°
2026-05-05 03:26 45.33912 15.58640 38063 ft 440 kts 317°
2026-05-05 03:27 45.38560 15.52974 38059 ft 440 kts 317°
2026-05-05 03:27 45.43209 15.47297 38055 ft 441 kts 317°
2026-05-05 03:28 45.47864 15.41597 38053 ft 441 kts 317°
2026-05-05 03:28 45.52514 15.35895 38057 ft 441 kts 317°
2026-05-05 03:29 45.57153 15.30155 38045 ft 441 kts 314°
2026-05-05 03:29 45.61242 15.23671 38048 ft 439 kts 309°
2026-05-05 03:30 45.65262 15.17092 38058 ft 440 kts 309°
2026-05-05 03:30 45.69285 15.10508 38067 ft 440 kts 309°
2026-05-05 03:31 45.73311 15.03903 38072 ft 440 kts 309°
2026-05-05 03:31 45.77331 14.97288 38062 ft 440 kts 309°
2026-05-05 03:32 45.81349 14.90665 38064 ft 441 kts 309°
2026-05-05 03:32 45.85369 14.84028 38062 ft 441 kts 309°
2026-05-05 03:33 45.89384 14.77371 38076 ft 441 kts 309°
2026-05-05 03:33 45.93393 14.70707 38077 ft 441 kts 308°